Content
SEND FEEDBACK

Daily
Averages
Monthly
Summary
United States of America

ANN ARBOR, MICHIGAN


Home > North America > United States > Michigan
Elevation: 759 feet     Latitude: 42 17N     Longitude: 083 43W

WEATHER
 
SELECT A DAY
Number of Records: 206,948;   Date Range: 1/1/95 - 10/19/14
 
SHARE

PRINT THIS DATA

[ ← Previous Day ]
WEATHER ALMANAC - APRIL 23, 2013
[ Next Day → ]
[ °C ]   °F
Weather ElementAverageHighLow
Temperature54.8 °F71.1 °F (2:53 pm)35.1 °F (3:53 am)
Dewpoint42.9 °F54 °F (6:53 pm)32 °F (1:53 am)
Humidity68.9 %96 % (10:53 pm)36 % (2:53 pm)
Barometer29.98 in30.17 in (1:53 am)29.80 in (11:51 pm)
Wind Speed7.2 mph17.3 mph (3:53 pm)
Wind Gust27.6 mph (6:53 pm)
Weather ElementAverage
Visibility8.5 mi
Wind DirectionSE (137.6 °)

Weather ElementTotal
Precipitation0.39 in
Heating Degree Days11.9 (Base 65)
Growing Degree Days3.1 (Base 50)
Averaged from 25 records on April 23, 2013
WEATHER CONDITIONS BREAKOUT
WIND DIRECTION BREAKOUT
WEATHER BY HOUR - APRIL 23, 2013
[ °C ]   °F
Local TimeTemperatureDewpointHumidityBarometerVisibilityWind DirectionWind SpeedGust SpeedPrecipitationEventsConditions
1:53 AM41.0 °F32.0 °F70 %30.17 in10.0 miCalmClear
2:53 AM39.9 °F33.1 °F77 %30.15 in10.0 miCalmClear
3:53 AM35.1 °F32.0 °F89 %30.13 in10.0 miCalmClear
4:53 AM35.1 °F32.0 °F89 %30.12 in10.0 miCalmClear
5:53 AM37.9 °F34.0 °F86 %30.09 in10.0 miEast (80°)3.5 mphClear
6:53 AM41.0 °F36.0 °F82 %30.09 in10.0 miCalmClear
7:53 AM44.1 °F37.0 °F76 %30.10 in10.0 miCalmClear
8:53 AM51.1 °F35.1 °F54 %30.09 in10.0 miSouth (190°)5.8 mphClear
9:53 AM55.9 °F35.1 °F45 %30.08 in10.0 miSouth (170°)8.1 mphClear
10:53 AM61.0 °F39.0 °F44 %30.05 in10.0 miSouth (190°)11.5 mphClear
11:53 AM64.9 °F41.0 °F42 %30.04 in10.0 miSouth (190°)11.5 mph18.4 mphClear
12:53 PM68.0 °F42.1 °F39 %30.01 in10.0 miSouth (180°)13.8 mph19.6 mphPartly Cloudy
1:53 PM70.0 °F43.0 °F38 %29.96 in10.0 miSSW (210°)13.8 mph25.3 mphPartly Cloudy
2:53 PM71.1 °F43.0 °F36 %29.93 in10.0 miSSW (200°)15.0 mph24.2 mphPartly Cloudy
3:53 PM70.0 °F42.1 °F36 %29.91 in10.0 miSW (220°)17.3 mph24.2 mphPartly Cloudy
4:53 PM69.1 °F43.0 °F39 %29.88 in10.0 miSSW (200°)16.1 mph25.3 mphScattered Clouds
5:53 PM68.0 °F45.0 °F43 %29.87 in10.0 miSSW (200°)12.7 mph20.7 mphMostly Cloudy
6:53 PM57.9 °F54.0 °F87 %29.91 in7.0 miWest (260°)17.3 mph27.6 mph0.03 inRainLight Rain
7:53 PM57.0 °F53.1 °F87 %29.88 in10.0 miSSW (210°)6.9 mph0.01 inOvercast
8:53 PM55.9 °F53.1 °F90 %29.88 in6.0 miSSW (200°)6.9 mph0.03 inRainLight Rain
9:53 PM55.0 °F53.1 °F93 %29.86 in8.0 miSouth (190°)4.6 mph0.03 inRainLight Rain
10:53 PM55.0 °F54.0 °F96 %29.84 in4.0 miSouth (180°)3.5 mph0.05 inRainLight Rain
11:40 PM55.4 °F53.6 °F94 %29.81 in2.0 miSE (130°)3.5 mph0.06 inRainRain
11:51 PM55.4 °F53.6 °F94 %29.80 in3.0 miESE (120°)3.5 mph0.09 inRainRain
11:53 PM55.0 °F54.0 °F96 %29.80 in3.0 miESE (120°)3.5 mph0.09 inRainRain
Hourly data recorded from KARB, located miles away from Ann Arbor, Michigan







STORIES FROM OUR PARTNERS